Wetbulb
50.42 50.43 50.92 51.54 51.52 51.82 52.12 53.49 54.58 54.63 55.64 55.34 58.03 58.36 57.57 57.29 56.89 57.35 57.26 57.66 58.09 59.23 59.91 59.90 59.58 60.02 59.84 59.68 59.98 60.32 61.33 61.44
51.33 50.50 49.93 50.50 51.36 51.45 52.68 53.50 53.91 54.06 54.62 56.80 57.28 57.46 57.75 57.30 57.79 57.86 57.85 58.75 58.81 59.50 60.11 60.16 60.22 60.31 59.95 59.47 59.72 60.26 61.48 61.54
51.57 51.41 50.11 49.52 50.05 51.12 53.41 53.71 53.09 53.76 53.96 57.11 56.82 56.75 57.62 57.75 58.00 58.22 58.49 59.14 59.39 60.01 60.43 60.41 60.57 60.37 59.96 59.55 59.81 60.25 61.28 61.19
52.28 52.46 51.39 50.21 50.96 50.94 52.74 53.71 52.89 53.81 53.59 56.84 57.11 56.86 57.60 57.73 57.75 57.97 58.20 58.45 59.14 60.08 60.43 60.46 60.37 60.94 49.45 53.44 58.36 60.09 61.51 61.41
52.56 52.74 52.45 51.91 51.76 52.39 51.82 52.85 52.78 53.29 53.46 57.15 57.00 56.97 57.61 56.84 57.27 57.32 57.03 57.18 58.13 58.95 58.96 59.90 60.25 58.91 47.09 49.63 53.26 61.23 61.07 60.75
53.59 53.66 53.15 52.26 52.65 52.08 52.77 53.01 52.30 52.97 52.74 56.22 56.54 56.76 57.19 56.50 56.61 56.38 54.97 55.52 56.91 57.15 56.93 58.71 59.07 56.56 47.09 47.82 52.53 60.79 60.84 61.34
54.70 54.81 53.78 51.69 52.81 53.26 52.97 52.28 52.22 52.70 52.78 54.74 55.38 56.01 56.48 55.95 55.83 54.98 54.31 54.66 54.52 55.30 55.88 58.26 58.61 56.70 45.64 46.37 56.82 61.19 60.57 60.95
54.81 54.77 53.83 52.54 52.85 53.30 52.66 51.79 51.79 52.44 52.99 54.30 54.32 56.09 56.45 55.67 55.16 54.36 54.14 54.29 54.60 54.28 54.73 57.35 54.65 57.48 44.92 46.55 56.12 60.26 59.15 58.93
55.00 54.75 53.92 53.58 52.44 53.92 53.02 51.34 51.85 53.90 54.42 54.16 53.57 55.78 55.75 55.89 55.09 54.57 54.04 53.31 53.52 53.09 52.97 53.14 55.67 56.18 53.45 44.92 49.45 59.62 58.45 57.59
54.89 54.52 54.39 53.97 53.25 54.08 53.28 51.43 54.08 53.87 54.17 54.01 53.06 53.95 56.76 55.82 55.62 54.76 54.05 53.02 52.40 51.61 51.31 50.78 50.91 53.05 49.05 44.88 45.83 51.06 52.09 57.71
55.53 55.32 54.43 53.32 53.63 55.05 53.45 53.60 52.57 53.33 53.56 53.50 52.56 52.27 56.75 55.92 55.65 54.42 53.47 53.08 52.18 51.46 51.60 51.52 51.17 49.59 49.44 45.70 44.06 44.45 46.70 56.13
55.39 54.92 53.66 52.77 53.72 55.04 55.77 53.86 53.40 53.58 53.05 52.70 52.05 51.32 54.21 56.28 56.59 56.08 54.84 53.21 52.51 52.30 52.06 51.96 51.88 50.08 49.00 49.03 51.17 49.65 45.98 49.68
55.44 54.87 53.84 53.82 53.94 54.85 54.74 53.92 53.02 52.92 52.79 52.57 51.92 52.01 53.23 56.20 56.54 55.88 56.60 56.34 54.16 53.95 53.58 53.52 52.04 51.38 50.54 45.89 48.52 51.54 52.70 49.00
55.12 55.24 54.18 54.07 54.43 54.96 54.43 54.53 53.31 52.68 51.63 51.17 51.31 52.10 52.27 55.77 55.76 52.69 41.11 44.87 46.85 44.56 45.13 51.88 54.14 48.92 43.62 40.91 39.73 41.07 40.76 39.96
55.51 55.24 55.09 54.62 54.95 54.83 55.34 54.79 54.13 52.78 52.58 51.36 50.49 51.16 53.02 54.84 56.13 55.57 54.67 49.36 43.84 44.02 44.16 44.61 45.73 48.83 41.59 40.50 38.98 37.87 38.35 41.77
56.69 56.52 55.94 55.17 55.12 55.20 55.83 55.70 54.83 53.93 53.55 46.02 51.03 52.21 53.72 55.16 55.98 56.46 56.84 55.95 54.86 54.37 42.99 45.98 42.28 42.18 41.00 39.42 37.34 39.83 43.59 44.08
56.65 56.25 56.31 55.77 55.48 55.53 56.08 56.88 55.55 54.39 53.58 52.18 52.89 52.84 54.42 54.36 56.35 56.41 56.34 56.57 56.26 53.92 47.47 42.59 40.24 39.60 39.13 37.22 38.02 50.16 47.89 47.05
55.69 55.42 56.31 56.28 56.15 56.69 56.69 56.93 56.46 55.48 54.82 48.79 49.98 53.40 54.48 55.33 55.85 55.80 55.56 55.15 55.04 54.15 51.86 53.42 43.63 44.83 47.77 46.41 44.01 47.34 49.21 49.25
56.67 56.74 56.93 56.95 57.03 57.57 57.24 57.26 56.86 56.33 55.94 52.92 49.67 54.36 54.91 55.66 55.96 55.72 55.60 55.41 54.97 54.35 54.55 51.40 40.60 50.20 50.98 50.32 48.14 47.37 49.48 50.58
57.34 57.16 57.60 58.03 58.54 58.17 57.74 57.60 57.49 57.32 56.48 54.38 53.62 54.82 55.53 55.70 55.77 56.25 55.83 55.61 55.35 54.67 54.89 50.51 36.61 49.33 51.32 50.88 50.70 50.10 50.46 51.61
MSLP
1002.92 1003.61 1004.18 1004.70 1005.17 1005.68 1006.15 1006.34 1006.51 1006.85 1007.25 1007.49 1007.85 1008.01 1008.52 1008.73 1008.92 1009.16 1009.43 1009.71 1009.93 1010.06 1010.14 1010.34 1010.64 1010.84 1011.02 1011.17 1011.21 1011.30 1011.40 1011.54
1002.78 1003.59 1004.07 1004.58 1005.08 1005.53 1005.96 1006.22 1006.45 1006.80 1007.23 1007.54 1007.80 1008.08 1008.46 1008.68 1008.84 1009.09 1009.41 1009.76 1009.92 1010.12 1010.29 1010.49 1010.80 1011.09 1011.35 1011.49 1011.52 1011.70 1011.81 1011.94
1002.40 1003.15 1003.76 1004.50 1004.98 1005.42 1005.78 1005.99 1006.39 1006.79 1007.22 1007.62 1007.86 1008.20 1008.46 1008.77 1008.92 1009.12 1009.42 1009.73 1010.03 1010.22 1010.45 1010.77 1011.01 1011.29 1011.53 1011.81 1012.06 1012.06 1012.11 1012.33
1002.03 1002.67 1003.28 1004.14 1004.55 1005.08 1005.63 1005.95 1006.34 1006.73 1007.13 1007.55 1007.90 1008.24 1008.54 1008.92 1009.10 1009.29 1009.59 1009.82 1010.08 1010.32 1010.53 1010.83 1011.29 1011.59 1011.88 1012.17 1012.36 1012.49 1012.59 1012.74
1001.23 1001.90 1002.58 1003.40 1003.96 1004.54 1005.32 1005.77 1006.21 1006.65 1006.99 1007.45 1007.85 1008.20 1008.55 1009.03 1009.26 1009.54 1009.80 1010.13 1010.25 1010.49 1010.81 1011.03 1011.35 1011.83 1012.14 1012.38 1012.62 1012.76 1012.86 1013.05
1000.49 1001.23 1002.16 1002.92 1003.50 1004.19 1004.78 1005.53 1006.10 1006.52 1006.97 1007.33 1007.76 1008.05 1008.51 1009.04 1009.51 1009.90 1010.11 1010.36 1010.60 1010.81 1011.07 1011.26 1011.62 1012.14 1012.28 1012.52 1012.83 1013.14 1013.26 1013.44
999.13 1000.11 1001.23 1002.28 1003.03 1003.67 1004.59 1005.44 1005.99 1006.41 1006.80 1007.20 1007.62 1008.04 1008.47 1009.00 1009.49 1009.99 1010.31 1010.53 1010.87 1011.10 1011.22 1011.49 1011.76 1012.42 1012.68 1012.94 1013.13 1013.37 1013.54 1013.85
998.70 999.79 1000.88 1001.80 1002.65 1003.32 1004.32 1005.11 1005.81 1006.20 1006.44 1006.75 1007.28 1007.81 1008.25 1008.89 1009.36 1009.87 1010.28 1010.60 1010.88 1011.27 1011.59 1011.71 1012.05 1012.42 1012.82 1013.17 1013.24 1013.46 1013.76 1014.19
998.28 999.37 1000.19 1000.92 1002.12 1002.95 1003.93 1004.63 1005.24 1005.49 1005.92 1006.47 1007.11 1007.60 1008.05 1008.51 1009.23 1009.76 1010.16 1010.69 1011.14 1011.57 1011.89 1012.13 1012.41 1012.57 1013.02 1013.31 1013.48 1013.68 1014.07 1014.55
997.85 998.74 999.75 1000.51 1001.53 1002.42 1003.45 1004.11 1004.36 1005.14 1005.71 1006.31 1006.95 1007.46 1007.86 1008.54 1009.13 1009.70 1010.19 1010.62 1011.25 1011.71 1012.11 1012.53 1012.85 1013.01 1013.18 1013.47 1013.73 1013.80 1014.19 1014.53
996.77 997.87 999.15 1000.10 1000.78 1001.47 1002.51 1003.15 1004.06 1004.84 1005.58 1006.12 1006.77 1007.38 1007.89 1008.35 1009.02 1009.68 1010.38 1010.70 1011.15 1011.78 1012.09 1012.40 1012.70 1013.19 1013.41 1013.63 1013.95 1014.15 1014.23 1014.57
996.11 997.37 998.45 999.43 1000.17 1000.68 1001.03 1002.40 1003.41 1004.42 1005.31 1005.93 1006.49 1007.24 1007.91 1008.39 1008.84 1009.39 1010.04 1010.68 1011.19 1011.55 1012.03 1012.43 1012.75 1013.03 1013.45 1013.82 1014.08 1014.38 1014.71 1014.98
995.48 996.40 997.39 998.28 999.42 1000.24 1000.95 1001.73 1002.82 1003.95 1004.81 1005.60 1006.31 1006.90 1007.53 1008.25 1008.76 1009.26 1009.57 1009.87 1010.19 1010.95 1011.35 1011.73 1012.45 1012.99 1013.05 1013.24 1013.68 1014.32 1014.61 1015.05
994.87 995.64 996.64 997.56 998.52 999.40 1000.31 1001.03 1001.91 1003.08 1004.34 1005.17 1005.84 1006.49 1007.18 1007.80 1008.55 1009.42 1009.69 1009.67 1009.85 1010.21 1010.44 1010.83 1011.56 1011.70 1012.22 1012.95 1013.50 1014.00 1014.50 1014.93
994.66 994.37 995.29 996.48 997.54 998.42 999.31 1000.13 1001.13 1002.07 1003.06 1004.23 1005.11 1005.81 1006.48 1007.16 1007.87 1008.51 1009.27 1010.00 1009.94 1010.20 1010.49 1010.89 1011.17 1011.42 1012.09 1012.66 1013.23 1014.08 1014.55 1014.87
993.58 994.38 994.70 995.67 996.69 997.37 998.16 999.16 1000.18 1001.15 1002.08 1003.06 1004.16 1005.00 1005.66 1006.27 1006.85 1007.40 1008.04 1008.75 1009.51 1010.18 1010.47 1010.71 1011.04 1011.58 1011.99 1012.40 1013.24 1014.12 1015.06 1015.11
993.48 994.25 995.03 995.04 995.91 996.58 997.42 998.26 999.21 1000.25 1001.27 1002.24 1002.96 1003.93 1004.73 1005.36 1006.03 1006.65 1007.16 1007.77 1008.36 1009.12 1010.07 1010.65 1010.97 1011.52 1011.98 1012.47 1012.89 1012.77 1013.43 1013.92
993.27 993.65 994.09 995.05 994.93 995.33 996.21 997.19 998.26 999.38 1000.21 1000.93 1001.97 1003.00 1003.97 1004.74 1005.28 1005.81 1006.39 1007.00 1007.61 1008.24 1008.98 1009.42 1010.42 1011.30 1011.88 1012.15 1012.44 1012.34 1012.45 1012.59
993.37 993.18 993.58 994.09 994.68 995.48 996.16 996.22 997.27 998.17 999.25 1000.40 1001.11 1002.13 1002.92 1003.49 1004.26 1004.81 1005.40 1005.95 1006.47 1007.14 1007.62 1008.30 1008.70 1009.60 1010.05 1010.57 1010.97 1011.23 1011.34 1011.46
994.27 994.08 994.09 994.32 994.59 995.01 995.95 996.75 997.31 997.39 998.24 999.38 1000.32 1000.91 1001.78 1002.66 1003.13 1003.74 1004.36 1004.88 1005.44 1006.08 1006.70 1007.64 1008.19 1008.79 1008.90 1009.10 1009.35 1009.57 1009.70 1009.87
Wind_Speed
8 8 9 9 7 7 6 6 6 5 5 5 5 4 5 5 5 5 4 4 4 3 4 5 5 5 5 4 5 6 6 5
10 8 8 8 7 7 6 6 5 6 5 5 6 5 5 4 5 5 5 4 4 4 4 6 5 5 5 5 5 6 6 6
13 12 9 8 7 6 5 5 6 6 6 6 6 5 5 5 5 5 5 5 4 4 6 6 5 5 4 6 7 8 6 7
12 12 11 10 10 8 6 6 6 6 6 6 6 6 6 5 5 5 5 5 5 4 5 6 6 4 9 9 8 7 6 7
15 15 14 12 11 10 8 7 6 6 6 6 6 6 6 6 5 5 5 5 4 5 4 4 5 5 8 10 9 5 5 6
14 13 11 9 8 8 7 6 6 7 6 6 6 6 7 6 6 5 4 3 4 4 4 4 5 4 10 9 10 7 6 7
15 15 13 10 11 10 8 7 7 6 7 7 6 6 7 7 6 6 3 4 3 2 3 5 6 5 7 10 8 7 8 9
14 13 10 12 10 11 10 8 7 8 8 8 7 7 9 8 7 7 4 3 4 4 4 3 6 6 6 9 7 5 7 5
12 14 15 15 11 12 11 8 10 10 8 7 7 6 8 8 7 4 5 5 5 5 5 3 4 4 6 7 8 5 5 5
15 15 13 12 13 14 12 12 11 7 8 8 7 6 5 6 9 5 5 7 6 5 5 4 3 1 4 7 9 7 7 6
16 16 13 12 15 15 15 13 8 8 8 8 7 7 5 6 7 7 5 5 6 5 3 3 3 3 2 5 6 7 8 4
15 15 15 15 14 16 16 13 12 11 10 7 7 8 6 5 4 6 7 6 4 5 4 4 2 2 3 3 3 4 7 5
15 16 15 16 15 13 10 14 14 12 10 7 7 6 8 7 5 5 7 7 9 8 6 6 6 4 5 7 8 5 4 6
14 14 13 15 16 15 13 15 16 14 10 7 7 7 6 7 7 4 7 1 9 6 6 9 6 8 12 13 11 7 12 15
12 19 17 16 17 17 15 16 16 16 14 10 7 8 8 8 7 8 7 2 4 7 9 10 10 12 13 13 11 9 11 8
14 12 15 16 16 17 17 18 17 15 13 15 10 9 8 8 9 9 8 7 7 4 4 7 8 5 8 9 16 13 4 3
8 8 8 15 16 15 16 17 18 16 13 11 12 10 9 9 8 8 8 8 8 4 3 2 5 7 8 12 16 5 8 8
11 13 14 13 16 16 18 18 17 13 13 15 13 10 9 9 8 9 8 8 7 7 6 8 6 6 5 6 7 7 6 7
1 8 9 12 9 8 13 18 18 13 11 11 15 10 11 11 10 10 9 9 9 8 9 8 12 9 9 8 8 9 9 9
5 7 8 7 5 10 12 11 12 12 12 12 12 13 10 11 11 10 10 10 10 9 9 6 12 8 7 8 9 9 10 10
Wind_Direction
131 135 155 160 162 169 181 185 190 167 153 157 152 162 142 155 162 155 143 138 140 131 122 120 127 129 120 108 103 95 87 87
151 154 161 161 168 170 182 192 177 154 151 150 152 161 143 143 141 133 128 138 134 127 124 122 122 121 116 108 97 95 90 88
168 168 162 167 164 174 185 177 161 157 154 156 163 133 122 125 126 125 128 130 127 126 117 119 126 121 121 116 107 112 91 90
168 170 163 172 174 177 182 179 170 160 161 167 150 132 129 130 132 138 134 132 129 127 128 135 138 128 137 124 127 129 115 112
173 177 177 176 178 171 182 184 153 168 167 161 152 144 135 143 139 134 137 141 139 132 121 132 135 135 143 144 127 129 112 110
178 173 175 172 173 164 167 152 167 167 171 168 153 151 143 144 133 134 123 122 143 137 132 136 128 127 152 136 121 122 118 109
175 171 170 158 169 167 158 160 164 165 175 174 167 156 151 151 148 151 146 131 126 138 144 138 131 144 144 134 122 126 127 126
165 162 159 159 176 158 157 172 164 185 183 183 167 156 154 164 157 161 146 134 134 130 123 141 130 145 161 149 134 125 120 120
151 156 169 177 162 159 171 165 186 197 179 160 161 164 163 162 151 157 141 130 120 116 111 117 133 160 168 171 148 135 131 134
164 163 174 167 163 164 171 184 197 166 162 163 164 172 161 144 159 148 142 134 130 134 126 106 94 103 147 185 174 142 146 139
169 170 163 166 168 174 175 194 162 155 157 170 165 158 163 153 147 144 136 142 147 156 154 149 147 134 136 181 189 161 163 146
164 160 168 171 178 179 189 162 167 162 172 177 159 159 157 156 141 156 153 160 158 162 164 173 165 155 162 159 168 151 128 97
162 169 174 175 171 182 166 160 160 168 174 173 167 166 169 164 152 170 177 187 176 175 192 174 166 192 213 182 165 167 171 131
165 173 166 167 173 175 167 167 165 165 172 171 178 169 172 169 163 145 47 27 207 219 176 171 198 197 173 180 188 158 133 143
195 173 173 166 173 175 173 170 169 173 175 173 169 172 176 174 178 181 187 58 112 182 190 200 190 185 177 188 179 129 157 152
185 187 167 168 172 181 175 171 175 178 175 166 170 181 185 185 189 194 195 191 196 183 204 195 215 198 195 164 136 120 131 245
151 158 187 166 175 182 173 174 176 175 172 174 180 179 182 182 184 187 194 194 198 166 138 142 112 137 139 146 167 181 184 197
150 179 173 190 183 182 174 174 178 177 184 174 173 176 173 180 183 187 190 192 192 192 191 201 140 131 176 179 194 203 199 206
112 148 166 179 185 165 186 174 174 180 178 170 173 174 182 186 186 192 193 196 201 201 210 187 176 182 195 188 191 200 208 212
32 70 85 96 165 152 171 183 196 178 174 172 177 189 182 186 193 191 192 195 199 200 210 184 171 200 195 197 200 203 208 213